Regional Weather Roundup
Issued by NWS

Home | Current Version | Previous Version | Graphics & Text | Print | Product List | Glossary On
Versions: 1 2 3 4 5 6 7 8 9 10 11 12 13 14 15 16 17 18 19 20 21 22 23 24 25 26 27 28 29 30 31 32 33 34 35 36 37 38 39 40 41 42 43 44 45 46 47 48 49 50
000
ASUS43 KMPX 211301
RWRMN
WEATHER ROUNDUP FOR MINNESOTA
NATIONAL WEATHER SERVICE TWIN CITIES/CHANHASSEN MN
800 AM CDT THU SEP 21 2017


NOTE: "FAIR" INDICATES FEW OR NO CLOUDS BELOW 12,000 FEET WITH NO
SIGNIFICANT WEATHER AND/OR OBSTRUCTIONS TO VISIBILITY. N/A MEANS
CURRENT SKY AND/OR WEATHER CONDITIONS ARE NOT AVAILABLE.

MNZ060>063-068>070-211400-
   Twin Cities Metro

CITY           SKY/WX    TMP DP  RH WIND       PRES   REMARKS
TWIN CITIES    CLEAR     57  50  77 E6        29.99F
ST PAUL        SUNNY     56  52  86 CALM      30.00F
CRYSTAL        CLEAR     49  46  90 CALM      29.98S
BLAINE         CLEAR     50  50 100 CALM      30.00R
LAKEVILLE      CLEAR     48  48 100 CALM      29.99S
EDEN PRAIRIE   CLEAR     56  51  84 E5        29.98S
SOUTH ST PAUL  CLEAR     54  51  90 CALM      29.99F
LAKE ELMO      FAIR      46  46 100 CALM      30.01S
$$
MNZ001>005-007-008-013>017-022>024-027-028-211400-
   Northwest Minnesota

CITY           SKY/WX    TMP DP  RH WIND       PRES   REMARKS
BEMIDJI        CLEAR     50  45  82 SE8       29.93F
HALLOCK        CLOUDY    55  46  71 S13       29.81R
ROSEAU         CLOUDY    57  46  67 S14       29.85F
WARROAD        CLOUDY    57  46  67 S12       29.87F
CROOKSTON      CLOUDY    57  48  72 S15       29.86R
FOSSTON        CLEAR     54  45  71 SE9       29.89S
DETROIT LAKES  CLEAR     54  46  76 SE10      29.91R
MOORHEAD       CLEAR     54  48  82 S12       29.88S
PARK RAPIDS    CLEAR     52  45  77 SE7       29.94S
MAHNOMEN       FAIR      56  44  64 SE12G17   29.88S
$$
MNZ006-009>011-018-025>026-211400-
   North Central Minnesota

CITY           SKY/WX    TMP DP  RH WIND       PRES   REMARKS
BAUDETTE       PTCLDY    47  44  90 SE7       29.91F
FLAG ISLAND    CLOUDY    59  50  72 S18       29.85F
INTL FALLS     PTCLDY    48  43  82 SE6       29.98R
WASKISH        CLEAR     52  46  82 SE3       29.94R
BIG FORK       CLEAR     48  45  87 SE3       29.98S
LONGVILLE      CLEAR     46  46 100 CALM      29.96F
GRAND RAPIDS   CLEAR     44  43  96 S3        30.02R
CRANE LAKE     CLEAR     43  43 100 CALM      30.02R
ORR            CLEAR     45  41  87 CALM      29.99R
COOK           CLEAR     43  43 100 CALM      30.02R
WALKER         FAIR      55  44  68 SE7       29.95S
$$
MNZ012-019>021-037-211400-
   Northeast Minnesota

CITY           SKY/WX    TMP DP  RH WIND       PRES   REMARKS
DULUTH         SUNNY     49  49 100 SE8       30.02S
ELY            SUNNY     37  37 100 CALM      30.04R
HIBBING        CLEAR     38  38 100 CALM      30.02R
EVELETH        CLEAR     40  37  91 CALM      30.03S
DULUTH HARBOR  SUNNY     52  50  93 CALM      30.03S
GRAND MARAIS     N/A     52  49  89 CALM      30.05R
$$
MNZ029>031-032-039>041-046>048-054>057-064-211400-
   West Central Minnesota

CITY           SKY/WX    TMP DP  RH WIND       PRES   REMARKS
FERGUS FALLS   CLEAR     54  46  76 S10       29.91R
WHEATON        CLEAR     52  46  82 SE9       29.90F
MORRIS         CLEAR     52  48  87 SE13      29.91S
ALEXANDRIA     CLEAR     53  46  77 SE12      29.95R
ELBOW LAKE     FAIR      53  47  82 E9        29.91S
WADENA         CLEAR     50  45  81 SE7       29.92S
GLENWOOD       CLEAR     52  46  82 SE6       29.95R
APPLETON       CLEAR     54  46  76 SE7       29.91S
BENSON         CLEAR     52  46  82 S8        29.94F
ORTONVILLE     CLEAR     52  46  82 NE12      29.89F
MADISON        CLEAR     54  54 100 SE8       29.91S
WILLMAR        FAIR      54  48  82 E9        29.95F
$$
MNZ033>034-036-042>043-049>051-058-059-211400-
   Central Minnesota

CITY           SKY/WX    TMP DP  RH WIND       PRES   REMARKS
ST CLOUD       CLEAR     50  47  89 E7        29.98S
SAUK CENTRE    FAIR      50  46  84 SE5       29.96R
PAYNESVILLE    CLEAR     56  48  74 SE9       29.96S
AITKIN         CLEAR     39  37  93 CALM      29.98S
PINE RIVER     CLEAR     46  43  87 SE5       30.00F
BRAINERD       CLEAR     50  45  83 SE7       29.97F
LITTLE FALLS   CLEAR     52  41  66 E6        29.96F
LITCHFIELD     CLEAR     55  52  88 E10       29.96F
BUFFALO        CLEAR     53  47  79 E5        29.99S
MAPLE LAKE     CLEAR     56  51  84 E3        29.99S
HUTCHINSON     CLOUDY    54  50  86 E6        29.97F
$$
MNZ037-044-045-052-053-211400-
   East Central Minnesota

CITY           SKY/WX    TMP DP  RH WIND       PRES   REMARKS
PRINCETON      CLEAR     46  46 100 CALM      29.99F
MORA           CLEAR     41  41 100 CALM      30.02S
RUSH CITY      CLEAR     43  42  97 CALM      30.01S
MOOSE LAKE     FOG       41  39  93 NE3       30.00F VSB 1/2
HINCKLEY       FAIR      41  41 100 CALM      30.01F
CLOQUET        SUNNY     48  45  87 CALM      30.02S
MCGREGOR       CLEAR     41  41 100 CALM      30.01S
$$
MNZ071>073-080-081-089-090-097-098-211400-
   Southwest Minnesota

CITY           SKY/WX    TMP DP  RH WIND       PRES   REMARKS
MONTEVIDEO     CLEAR     52  50  93 S7        29.92F
GRANITE FALLS  CLEAR     52  49  89 E8        29.94S
CANBY          CLEAR     50  48  93 SE5       29.91F
MARSHALL       CLEAR     52  48  86 SE9       29.92S
REDWOOD FALLS  CLEAR     51  47  86 SE7       29.94S
OLIVIA         CLEAR     54  46  76 SE9       29.94S
PIPESTONE      CLEAR     54  48  82 SE9       29.91S
WINDOM         CLEAR     55  48  76 SE5       29.94F
WORTHINGTON    CLEAR     53  50  89 E8        29.93F
JACKSON        CLEAR     52  48  87 CALM      29.95S
TRACY          CLEAR     53  49  86 S8        29.92F
SLAYTON        CLEAR     47  45  92 SE5       29.94S
$$
MNZ065>067-074>077-082>085-091>093-211400-
   South Central Minnesota

CITY           SKY/WX    TMP DP  RH WIND       PRES   REMARKS
MANKATO        CLEAR     57  51  80 E8        29.96F
NEW ULM        CLEAR     55  48  76 E9        29.95F
ST JAMES       CLEAR     54  48  82 E6        29.95F
FAIRMONT       CLEAR     54  50  86 E3        29.95F
GLENCOE        CLEAR     54  52  92 E6        29.96F
FARIBAULT      CLEAR     52  52 100 CALM      29.98F
OWATONNA       SUNNY     55  52  88 E8        29.97F
WASECA         CLEAR     55  52  88 E6        29.97F
ALBERT LEA     CLEAR     57  54  88 E5        29.97F
$$
MNZ078>079-086>088-094>096-211400-
   Southeast Minnesota

CITY           SKY/WX    TMP DP  RH WIND       PRES   REMARKS
ROCHESTER      SUNNY     57  53  86 E8        30.00S
RED WING       SUNNY     52  48  87 CALM      29.99S
STANTON        SUNNY     48  47  96 CALM      29.98S
DODGE CENTER   SUNNY     54  50  87 NE3       29.98F
WINONA         CLOUDY    54  54 100 CALM      30.00F FOG
AUSTIN         SUNNY     57  54  88 SE3       29.97F
PRESTON        CLOUDY    56  53  89 E5        30.00F
$$
ABBREVIATIONS USED IN REMARKS
   TC - TEMPERATURES IN CELSIUS
  WCI - WIND CHILL INDEX
   HX - HEAT INDEX
  VSB - VISIBILITY
$$




USA.gov is the U.S. government's official web portal to all federal, state and local government web resources and services.